sat.trackr.live / text

‹ back to catalog

TANDEM-X

NORAD 36605 · 2010-030A

PAYLOAD ACTIVE UNKNOWN

§ Identity

Operator
Country
GER
Launch date
2010-06-21
Launch site
TYMSC
Launch vehicle
Mass (kg)
RCS (m²)
2.49

Purposes: earth_obs

External: N2YO · Heavens-Above · Gunter

§ Orbital elements

Epoch: 2026-09-19T10:46:56.573760Z

Period
94.79 min
Inclination
97.4471°
Eccentricity
0.0001926
Mean motion
15.19151721 rev/d
Perigee alt
507.1 km
Apogee alt
509.7 km
Semi-major
6,886.5 km
B*
4.3503e-6
RAAN
268.8219°
Arg perigee
88.9610°
Mean anomaly
271.1846°
Rev number
90,095

§ Raw data

TANDEM-X1 36605U 10030A   26262.44926590  .00000024  00000+0  43503-5 0  99962 36605  97.4471 268.8219 0001926  88.9610 271.1846 15.19151721900955

JSON: /api/v1/satellites/36605 · /tle

For live sub-satellite position, see the globe view (requires WebGL).

§ Visibility from observer

Set your observer location to see the next 7 days of passes ≥ 10°. The values pass through the URL so the page stays shareable.

No JS? Fill the form by hand. The geolocation button needs JavaScript.

§ Radio — SatNOGS DB

ModeDescriptionDownlinkUplink
FM S-band telemetry 2.280 GHz
FM S-band telemetry 2.268 GHz

2 transmitters · refreshed weekly from db.satnogs.org